GPS BIIF-9 (PRN 26)

Last updated on Wed Jun 24 2026 00:03:27 GMT+0000 (Coordinated Universal Time)

1 40534U 15013A 26173.54709584 .00000060 00000+0 00000+0 0 9991 2 40534 53.1676 203.9557 0109667 40.1740 320.6907 2.00551137 81934
UTC large
Height (km)
Speed (km/s)
/
Latitude / Longitude
Inclination (degrees)
Orbital Period (minutes)
Azimuth
Elevation
Range (km)
Doppler Factor

Next 0 passes for location: London (51.5072 / 0.1276)

No passes found over London.
GPS BIIF-9 (PRN 26)